Location: Munkebjergskolens Observatorium
(55.3864°N, 10.3987°E)
Time: 13:11:27
(UTC+02:00)

Oscar 19 - Pass Details

Date: 08 April 2023
Orbit: 773 x 789 km, 98.8° (Epoch: 07 June)

Event Time Altitude Azimuth Distance (km) Brightness Sun altitude
Rises 04:23:57 0° 24° (NNE) 3,280 15.1 -16.9°
Reaches altitude 10° 04:26:48 10° 39° (NE) 2,349 14.4 -16.6°
Maximum altitude 04:30:48 22° 90° (E) 1,656 12.9 -16.2°
Drops below altitude 10° 04:34:48 10° 141° (SE) 2,344 13.1 -15.8°
Sets 04:37:37 0° 156° (SSE) 3,270 13.7 -15.4°
